TimeMST,TemperatureF,Dew PointF,Humidity,Sea Level PressureIn,VisibilityMPH,Wind Direction,Wind SpeedMPH,Gust SpeedMPH,PrecipitationIn,Events,Conditions,WindDirDegrees,DateUTC
12:45 AM,62.6,59.0,88,29.92,10.0,North,6.9,-,N/A,,Clear,10,2012-11-16 07:45:00
1:44 AM,62.6,59.0,88,29.91,10.0,North,6.9,-,N/A,,Clear,360,2012-11-16 08:44:00
2:44 AM,60.8,57.2,88,29.90,8.0,NNE,6.9,-,N/A,,Clear,20,2012-11-16 09:44:00
3:46 AM,60.8,59.0,94,29.91,8.0,North,6.9,-,N/A,,Partly Cloudy,10,2012-11-16 10:46:00
4:53 AM,60.8,59.0,94,29.87,8.0,NNE,8.1,-,N/A,,Partly Cloudy,20,2012-11-16 11:53:00
5:46 AM,60.8,59.0,94,29.91,8.0,North,6.9,-,N/A,,Mostly Cloudy,360,2012-11-16 12:46:00
6:46 AM,60.8,59.0,94,29.92,7.0,NNE,6.9,-,N/A,,Overcast,30,2012-11-16 13:46:00
7:43 AM,68.0,64.4,88,29.92,8.0,North,6.9,-,N/A,,Overcast,360,2012-11-16 14:43:00
8:40 AM,71.6,66.2,83,29.94,9.0,NNE,6.9,-,N/A,,Overcast,30,2012-11-16 15:40:00
9:40 AM,75.2,66.2,73,29.95,10.0,SSE,6.9,-,N/A,,Mostly Cloudy,150,2012-11-16 16:40:00
10:41 AM,80.6,64.4,58,29.93,10.0,SSE,6.9,-,N/A,,Mostly Cloudy,160,2012-11-16 17:41:00
11:42 AM,82.4,64.4,54,29.92,10.0,South,8.1,-,N/A,,Mostly Cloudy,190,2012-11-16 18:42:00
12:41 PM,82.4,64.4,54,29.89,10.0,South,6.9,-,N/A,,Mostly Cloudy,180,2012-11-16 19:41:00
1:41 PM,84.2,64.4,51,29.86,10.0,WSW,8.1,-,N/A,,Mostly Cloudy,240,2012-11-16 20:41:00
2:40 PM,84.2,66.2,55,29.86,14.0,SW,6.9,-,N/A,,Mostly Cloudy,230,2012-11-16 21:40:00
3:40 PM,82.4,66.2,58,29.85,14.0,SW,6.9,-,N/A,,Mostly Cloudy,220,2012-11-16 22:40:00
4:42 PM,78.8,66.2,65,29.86,14.0,SW,6.9,-,N/A,,Mostly Cloudy,220,2012-11-16 23:42:00
5:41 PM,73.4,66.2,78,29.86,12.0,SW,8.1,-,N/A,,Mostly Cloudy,230,2012-11-17 00:41:00
6:41 PM,71.6,66.2,83,29.88,10.0,SW,6.9,-,N/A,,Mostly Cloudy,220,2012-11-17 01:41:00
7:45 PM,71.6,66.2,83,29.91,10.0,WNW,5.8,-,N/A,,Scattered Clouds,300,2012-11-17 02:45:00
8:41 PM,68.0,64.4,88,29.93,10.0,NNE,6.9,-,N/A,,Scattered Clouds,30,2012-11-17 03:41:00
9:51 PM,66.2,64.4,94,29.92,10.0,ESE,6.9,-,N/A,,Scattered Clouds,110,2012-11-17 04:51:00
10:45 PM,66.2,64.4,94,29.92,8.0,Calm,Calm,-,N/A,,Partly Cloudy,0,2012-11-17 05:45:00
11:45 PM,64.4,62.6,94,29.92,8.0,Calm,Calm,-,N/A,,Clear,0,2012-11-17 06:45:00